EW7070 Weather Reports


time (UTC)temp
F
wind
direction
speed
knots
gust
knots
rain 1hr
in
rain 24hr
in
rain mn
in
humidity
%
barometer
mb
20260508212741 61 305 0.9 2.6 0.00 0.38 0.30 68 1008.0
20260508212232 62 262 0.9 2.6 0.00 0.38 0.30 64 1007.9
20260508211734 63 299 0.9 2.6 0.00 0.38 0.30 62 1007.7
20260508211206 64 283 0.9 2.6 0.00 0.38 0.30 60 1007.7
20260508210928 65 294 0.0 2.6 0.00 0.38 0.30 55 1007.8
20260508210155 65 353 0.0 0.0 0.00 0.38 0.30 54 1007.8
20260508205632 65 353 0.9 4.3 0.00 0.38 0.30 51 1007.8
20260508205104 66 353 0.9 8.7 0.00 0.38 0.30 49 1007.7
20260508204554 66 187 1.7 8.7 0.00 0.38 0.30 50 1007.6
20260508204054 66 285 2.6 7.0 0.00 0.38 0.30 48 1007.5
20260508203552 66 235 3.5 8.7 0.00 0.38 0.30 48 1007.3
20260508203040 67 273 4.3 9.6 0.00 0.38 0.30 47 1007.3
20260508202744 67 287 4.3 8.7 0.00 0.38 0.30 49 1007.2
20260508201946 67 231 3.5 11.3 0.00 0.38 0.30 49 1007.1
20260508201441 68 331 2.6 9.6 0.00 0.38 0.30 48 1007.1
20260508200922 68 337 2.6 7.0 0.00 0.38 0.30 52 1007.2
20260508200424 69 325 1.7 7.0 0.00 0.38 0.30 50 1007.3
20260508195922 69 337 1.7 6.1 0.00 0.38 0.30 50 1007.2
20260508195420 70 340 3.5 7.8 0.00 0.38 0.30 48 1007.2
20260508194920 70 332 3.5 9.6 0.00 0.38 0.30 49 1007.2
20260508194353 70 322 4.3 9.6 0.00 0.38 0.30 49 1007.2
20260508193846 70 345 4.3 8.7 0.00 0.38 0.30 48 1007.2
20260508193615 70 318 4.3 8.7 0.00 0.38 0.30 50 1007.2
20260508192815 71 350 3.5 8.7 0.00 0.38 0.30 48 1007.3
20260508192310 71 4 4.3 7.8 0.00 0.38 0.30 49 1007.3
20260508191744 71 13 3.5 12.2 0.00 0.38 0.30 48 1007.3
20260508191241 71 334 4.3 12.2 0.00 0.38 0.30 48 1007.4
20260508190735 71 4 4.3 12.2 0.00 0.38 0.30 47 1007.3
20260508190208 71 324 4.3 12.2 0.00 0.38 0.30 47 1007.1
20260508185924 71 327 4.3 11.3 0.00 0.38 0.30 47 1007.0
20260508185423 71 332 5.2 12.2 0.00 0.38 0.30 47 1007.0
20260508184654 71 356 5.2 12.2 0.00 0.38 0.30 47 1006.9
20260508184410 71 11 6.1 17.4 0.00 0.38 0.30 47 1006.9
20260508184126 71 312 6.1 11.3 0.00 0.38 0.30 47 1006.9
20260508183055 71 357 7.0 12.2 0.00 0.38 0.30 46 1006.9
20260508182544 71 337 7.8 13.9 0.00 0.38 0.30 45 1006.8
20260508182044 71 312 7.0 14.8 0.00 0.38 0.30 45 1006.9
20260508181545 72 275 5.2 12.2 0.00 0.38 0.30 45 1006.8
20260508181038 72 330 6.1 15.6 0.00 0.38 0.30 46 1006.7
20260508180534 72 343 5.2 15.6 0.00 0.38 0.30 45 1006.6
20260508180032 72 16 4.3 12.2 0.00 0.38 0.30 45 1006.6
20260508175529 72 315 3.5 11.3 0.00 0.38 0.30 44 1006.6
20260508175029 72 290 4.3 11.3 0.00 0.38 0.30 45 1006.6
20260508174502 72 297 5.2 11.3 0.00 0.38 0.30 43 1006.7
20260508173955 72 297 6.1 13.9 0.00 0.38 0.30 44 1006.8
20260508173441 72 291 5.2 13.9 0.00 0.38 0.30 44 1006.8
20260508172941 72 272 5.2 13.9 0.00 0.38 0.30 46 1006.7
20260508172441 72 338 6.1 12.2 0.00 0.38 0.30 48 1006.6
20260508171914 72 1 6.1 13.0 0.00 0.38 0.30 48 1006.6
20260508171415 72 331 6.1 13.0 0.00 0.38 0.30 45 1006.6
20260508170850 72 321 6.1 13.0 0.00 0.38 0.30 47 1006.7
20260508170349 72 338 7.0 17.4 0.00 0.38 0.30 46 1006.7
20260508165845 72 348 6.1 17.4 0.00 0.38 0.30 45 1006.7
20260508165318 72 345 4.3 14.8 0.00 0.38 0.30 46 1006.8
20260508165020 72 333 4.3 11.3 0.00 0.38 0.30 49 1006.7
20260508164223 71 282 5.2 13.0 0.00 0.38 0.30 49 1006.7
20260508163656 71 348 5.2 13.0 0.00 0.38 0.30 48 1006.7
20260508163134 71 302 5.2 13.9 0.00 0.38 0.30 49 1006.8
20260508162621 71 322 6.1 13.9 0.00 0.38 0.30 48 1006.9
20260508162114 70 353 7.0 16.5 0.00 0.38 0.30 49 1006.8
20260508161550 70 348 6.1 16.5 0.00 0.38 0.30 49 1006.9
20260508161048 70 318 4.3 12.2 0.00 0.38 0.30 48 1006.8
20260508160550 70 309 5.2 13.0 0.00 0.38 0.30 48 1007.1
20260508160047 70 305 5.2 15.6 0.00 0.38 0.30 48 1007.1
20260508155548 70 285 5.2 15.6 0.00 0.38 0.30 48 1007.1
20260508155036 70 227 5.2 12.2 0.00 0.38 0.30 47 1007.3
20260508154534 69 330 4.3 12.2 0.00 0.38 0.30 47 1007.4
20260508154027 69 301 4.3 11.3 0.00 0.38 0.30 48 1007.5
20260508153524 69 283 5.2 14.8 0.00 0.38 0.30 50 1007.6
20260508152956 69 319 6.1 14.8 0.00 0.38 0.30 49 1007.7
20260508152446 69 328 4.3 14.8 0.00 0.38 0.30 49 1007.9
20260508151922 69 289 4.3 10.4 0.00 0.38 0.30 52 1007.8
20260508151355 69 337 5.2 11.3 0.00 0.38 0.30 55 1007.8
20260508151057 68 8 6.1 13.9 0.00 0.38 0.30 54 1007.8
20260508150258 68 294 6.1 13.9 0.00 0.38 0.30 52 1008.0
20260508145756 68 353 6.1 13.0 0.00 0.38 0.30 54 1008.1
20260508145225 68 331 6.1 13.0 0.00 0.38 0.30 54 1008.2
20260508144719 68 7 6.1 13.9 0.00 0.38 0.30 54 1008.4
20260508144214 68 320 5.2 13.9 0.00 0.38 0.30 52 1008.3
20260508143710 68 333 4.3 11.3 0.00 0.38 0.30 54 1008.4
20260508143204 67 354 4.3 10.4 0.00 0.38 0.30 56 1008.5
20260508142701 67 352 5.2 11.3 0.00 0.38 0.30 56 1008.7
20260508142150 67 348 6.1 19.1 0.00 0.38 0.30 55 1008.7
20260508141649 67 340 5.2 19.1 0.00 0.38 0.30 57 1008.9
20260508141415 66 8 4.3 11.3 0.00 0.38 0.30 57 1009.0
20260508140913 66 337 6.1 16.5 0.00 0.38 0.30 56 1008.8
20260508140112 66 328 7.0 16.5 0.00 0.38 0.30 57 1008.8
20260508135544 66 139 6.1 20.9 0.00 0.38 0.30 56 1008.8
20260508135251 66 44 4.3 13.9 0.00 0.38 0.30 58 1008.7
20260508134452 66 2 4.3 7.8 0.00 0.38 0.30 62 1008.8
20260508133924 65 288 5.2 13.9 0.00 0.38 0.30 62 1008.9
20260508133423 65 7 5.2 13.0 0.00 0.38 0.30 62 1008.8
20260508132918 65 300 5.2 12.2 0.00 0.38 0.30 60 1008.9
20260508132410 65 331 5.2 13.9 0.00 0.38 0.30 65 1008.7
20260508131910 65 23 6.1 13.9 0.00 0.38 0.30 63 1008.9
20260508131410 65 312 5.2 9.6 0.00 0.38 0.30 63 1008.8
20260508130910 65 339 5.2 13.9 0.00 0.38 0.30 65 1009.0
20260508130345 65 323 4.3 12.2 0.00 0.38 0.30 67 1008.9
20260508125818 65 216 4.3 12.2 0.00 0.38 0.30 69 1008.8
20260508125519 65 281 4.3 12.2 0.00 0.38 0.30 67 1008.9
20260508124723 64 278 3.5 13.9 0.00 0.38 0.30 68 1008.8
20260508124218 64 141 4.3 13.9 0.00 0.38 0.30 66 1008.7
20260508123715 64 322 5.2 13.0 0.00 0.38 0.30 70 1008.6
20260508123440 64 343 5.2 9.6 0.00 0.38 0.30 69 1008.5
20260508122913 64 277 5.2 14.8 0.00 0.38 0.30 68 1008.5
20260508122142 64 326 5.2 13.9 0.00 0.38 0.30 70 1008.3
20260508121634 63 298 4.3 10.4 0.00 0.38 0.30 71 1008.5
20260508121134 63 274 4.3 12.2 0.00 0.38 0.30 71 1008.4
20260508120634 63 345 5.2 12.2 0.00 0.38 0.30 71 1008.6
20260508120132 63 310 5.2 11.3 0.00 0.38 0.30 71 1008.6
20260508115558 62 301 6.1 11.3 0.00 0.38 0.30 71 1008.5
20260508115037 62 355 7.0 14.8 0.00 0.38 0.30 73 1008.4
20260508114507 62 330 7.0 14.8 0.00 0.38 0.30 72 1008.3
20260508113939 62 313 6.1 13.0 0.00 0.38 0.30 74 1008.5
20260508113436 61 264 4.3 12.2 0.00 0.38 0.30 76 1008.5
20260508113142 61 306 3.5 9.6 0.00 0.38 0.30 74 1008.5
20260508112407 61 318 2.6 7.0 0.00 0.38 0.30 74 1008.6
20260508111841 61 330 3.5 7.0 0.00 0.38 0.30 73 1008.7
20260508111322 61 341 4.3 11.3 0.00 0.38 0.30 74 1008.7
20260508110758 61 240 4.3 11.3 0.00 0.38 0.30 73 1008.6
20260508110228 61 321 3.5 11.3 0.00 0.38 0.30 74 1008.5
20260508105705 61 330 4.3 9.6 0.00 0.38 0.30 73 1008.5
20260508105149 61 291 4.3 11.3 0.00 0.38 0.30 74 1008.5
20260508104642 61 17 4.3 12.2 0.00 0.38 0.30 75 1008.4
20260508104128 61 305 4.3 12.2 0.00 0.38 0.30 75 1008.3
20260508103628 61 288 4.3 15.6 0.00 0.38 0.30 77 1008.3
20260508103126 61 56 5.2 15.6 0.00 0.38 0.30 77 1008.2
20260508102617 61 243 2.6 10.4 0.00 0.38 0.30 78 1008.1
20260508102113 61 204 1.7 9.6 0.00 0.38 0.30 81 1007.9
20260508101612 61 287 2.6 9.6 0.00 0.38 0.30 81 1007.9
20260508101113 61 298 5.2 11.3 0.00 0.38 0.30 80 1007.8
20260508100546 61 291 6.1 11.3 0.00 0.38 0.30 80 1007.6
20260508100034 61 272 6.1 11.3 0.00 0.38 0.30 80 1007.6
20260508095531 61 256 5.2 13.9 0.00 0.38 0.30 80 1007.4
20260508095022 61 283 4.3 13.9 0.00 0.38 0.30 80 1007.3
20260508094515 61 41 2.6 9.6 0.00 0.38 0.30 80 1007.2
20260508094217 61 262 1.7 8.7 0.00 0.38 0.30 81 1006.9
20260508093427 61 353 1.7 7.8 0.00 0.38 0.30 81 1006.8
20260508093419 61 291 2.6 7.8 0.00 0.38 0.30 81 1006.7
20260508092648 61 8 1.7 6.1 0.00 0.38 0.30 82 1006.7
20260508091916 61 262 3.5 13.9 0.00 0.38 0.30 82 1006.7
20260508091416 61 332 4.3 13.9 0.00 0.38 0.30 81 1006.7
20260508090917 61 297 5.2 15.6 0.00 0.38 0.30 82 1006.6
20260508090401 61 304 4.3 15.6 0.00 0.38 0.30 82 1006.5
20260508085840 60 2 3.5 7.8 0.00 0.38 0.30 86 1006.6
20260508085339 60 308 2.6 12.2 0.00 0.38 0.30 88 1006.4
20260508085101 60 354 3.5 11.3 0.00 0.38 0.30 89 1006.2
20260508084332 60 317 5.2 12.2 0.00 0.38 0.30 90 1006.1
20260508083822 59 293 3.5 12.2 0.00 0.38 0.30 92 1006.0
20260508083321 59 251 2.6 8.7 0.00 0.38 0.30 94 1005.8
20260508082821 59 350 2.6 6.1 0.00 0.38 0.30 95 1005.6
20260508082320 59 12 2.6 7.8 0.00 0.38 0.30 95 1005.5
20260508081812 59 321 0.9 7.8 0.00 0.38 0.30 96 1005.6
20260508081258 59 148 0.0 1.7 0.00 0.38 0.30 96 1005.5
20260508080743 59 36 0.0 1.7 0.00 0.38 0.30 96 1005.4
20260508080244 59 251 0.0 1.7 0.00 0.38 0.30 96 1005.5
20260508075744 59 251 0.0 1.7 0.00 0.38 0.30 96 1005.5
20260508075243 59 252 0.0 1.7 0.00 0.38 0.30 96 1005.3
20260508075006 59 252 0.0 1.7 0.00 0.38 0.30 96 1005.1
20260508074235 59 252 0.0 1.7 0.00 0.38 0.30 96 1004.8
20260508073733 59 241 0.0 0.9 0.00 0.38 0.30 96 1004.9
20260508073231 59 241 0.0 1.7 0.00 0.38 0.30 96 1004.7
20260508073003 59 241 0.9 2.6 0.00 0.38 0.30 96 1004.6
20260508072505 59 252 0.9 2.6 0.01 0.38 0.30 95 1004.5
20260508071729 59 58 1.7 2.6 0.02 0.38 0.30 95 1004.2
20260508071231 59 74 1.7 5.2 0.03 0.38 0.30 95 1004.1
20260508070713 58 88 0.9 5.2 0.04 0.38 0.30 95 1004.4
20260508070212 59 45 0.9 2.6 0.06 0.38 0.30 95 1004.4
20260508065707 59 40 0.9 2.6 0.07 0.38 0.30 95 1004.4
20260508065157 58 55 0.9 2.6 0.07 0.38 0.30 94 1004.4
20260508064659 59 87 0.0 2.6 0.08 0.38 0.30 94 1004.3
20260508064130 59 68 0.9 2.6 0.10 0.38 0.30 94 1004.5
20260508063850 59 29 0.9 2.6 0.11 0.38 0.30 94 1004.7
20260508063338 59 31 0.9 2.6 0.14 0.38 0.30 94 1005.1
20260508062558 59 43 0.9 4.3 0.18 0.38 0.30 94 1005.0
20260508062049 59 61 1.7 9.6 0.17 0.37 0.29 93 1004.8
20260508061547 59 40 1.7 9.6 0.16 0.36 0.28 93 1005.4
20260508061047 59 295 4.3 10.4 0.15 0.35 0.27 93 1005.3
20260508060545 59 289 5.2 13.0 0.14 0.34 0.26 92 1005.3
20260508060043 60 267 5.2 13.0 0.12 0.32 0.24 91 1005.2
20260508055544 60 261 5.2 15.6 0.11 0.31 0.23 90 1005.1
20260508055039 61 259 6.1 13.9 0.11 0.31 0.23 89 1004.6
20260508054526 62 251 5.2 12.2 0.09 0.29 0.21 88 1005.0
20260508054017 64 268 5.2 11.3 0.07 0.27 0.20 88 1004.8
20260508053454 66 270 4.3 17.4 0.06 0.26 0.18 89 1004.4
20260508052954 67 262 2.6 17.4 0.03 0.23 0.15 93 1004.9
20260508052455 68 206 1.7 5.2 0.01 0.20 0.12 93 1004.2
20260508051955 68 291 1.7 5.2 0.11 0.20 0.12 93 1004.0
20260508051446 68 245 0.9 2.6 0.11 0.20 0.12 92 1003.4
20260508050940 68 233 0.9 3.5 0.11 0.20 0.12 92 1003.5
20260508050652 68 216 0.9 3.5 0.11 0.20 0.12 91 1003.6
20260508045919 68 263 1.7 3.5 0.11 0.20 0.12 91 1003.4
20260508045410 69 266 1.7 3.5 0.11 0.20 0.12 90 1003.1
20260508044911 69 233 0.9 3.5 0.11 0.20 0.12 89 1002.8
20260508044410 69 260 0.9 7.0 0.11 0.20 0.12 88 1002.8
20260508043857 70 335 1.7 7.0 0.11 0.20 0.12 88 1002.8
20260508043332 70 322 3.5 9.6 0.11 0.20 0.12 86 1002.5
20260508042827 70 332 3.5 9.6 0.11 0.20 0.12 85 1002.5
20260508042315 71 346 3.5 8.7 0.10 0.18 0.11 84 1002.4
20260508041811 71 328 4.3 8.7 0.01 0.09 0.01 81 1002.5
20260508041311 71 312 4.3 8.7 0.01 0.09 0.01 81 1002.2
20260508040801 71 345 4.3 9.6 0.01 0.09 0.01 82 1001.9
20260508040257 70 307 3.5 9.6 0.01 0.09 0.01 82 1001.7
20260508035757 70 332 3.5 8.7 0.01 0.09 0.01 83 1001.7
20260508035255 70 316 2.6 8.7 0.01 0.09 0.01 83 1001.7
20260508034743 70 348 1.7 6.1 0.01 0.09 0.01 83 1001.8
20260508034216 70 352 2.6 6.1 0.01 0.09 0.01 84 1001.9
20260508033936 70 274 3.5 7.8 0.01 0.09 0.01 84 1002.2
20260508033436 70 0 3.5 7.8 0.01 0.09 0.01 83 1002.3
20260508032704 70 22 4.3 13.0 0.01 0.09 0.01 83 1002.5
20260508032202 70 14 5.2 13.0 0.00 0.08 0.00 83 1002.8
20260508031702 70 351 5.2 15.6 0.01 0.08 0.00 83 1002.8
20260508031433 69 353 4.3 15.6 0.01 0.08 0.00 83 1002.9
20260508030937 69 345 3.5 10.4 0.02 0.08 0.00 85 1003.0
20260508030205 69 41 4.3 11.3 0.03 0.08 0.00 84 1003.0
20260508025932 69 353 4.3 11.3 0.08 0.08 0.08 84 1002.9
20260508025413 69 347 3.5 9.6 0.08 0.08 0.08 85 1003.0
20260508024605 69 37 3.5 7.0 0.08 0.08 0.08 85 1003.0
20260508024335 69 339 3.5 10.4 0.08 0.08 0.08 85 1003.0
20260508023558 69 14 3.5 10.4 0.08 0.08 0.08 85 1003.2
20260508023045 69 8 3.5 7.8 0.08 0.08 0.08 85 1003.4
20260508022759 70 31 3.5 13.9 0.08 0.08 0.08 84 1003.5
20260508022029 70 345 5.2 13.9 0.08 0.08 0.08 83 1003.4
20260508021527 71 20 5.2 18.2 0.07 0.07 0.07 81 1003.6
20260508021027 72 322 5.2 20.9 0.06 0.06 0.06 79 1003.9
20260508020738 74 1 8.7 20.9 0.06 0.06 0.06 76 1004.0
20260508020004 76 253 11.3 26.1 0.03 0.03 0.03 71 1004.1
20260508015501 81 245 9.6 26.1 0.00 0.00 0.00 59 1004.2
20260508015203 84 275 7.8 18.2 0.00 0.00 0.00 54 1003.8
20260508014428 84 35 7.8 22.6 0.00 0.00 0.00 55 1001.7
20260508013929 84 359 8.7 22.6 0.00 0.00 0.00 55 1000.8
20260508013357 84 346 7.8 18.2 0.00 0.00 0.00 55 1000.4
20260508012852 84 356 7.0 18.2 0.00 0.00 0.00 55 1000.1
20260508012349 84 343 8.7 19.1 0.00 0.00 0.00 55 1000.1
20260508012053 85 10 8.7 19.1 0.00 0.00 0.00 54 1000.2
20260508011545 85 6 7.8 16.5 0.00 0.00 0.00 54 1000.2
20260508010810 85 338 7.8 16.5 0.00 0.00 0.00 54 1000.2
20260508010306 85 19 7.8 16.5 0.00 0.00 0.00 54 1000.2
20260508005737 85 332 8.7 17.4 0.00 0.00 0.00 54 1000.1
20260508005236 85 341 7.8 17.4 0.00 0.00 0.00 54 1000.1
20260508004956 84 337 7.8 16.5 0.00 0.00 0.00 54 1000.1
20260508004459 84 4 7.0 16.5 0.00 0.00 0.00 54 999.9
20260508003645 84 334 7.0 16.5 0.00 0.00 0.00 54 999.8
20260508003142 85 6 8.7 25.2 0.00 0.00 0.00 54 999.8
20260508002845 85 24 8.7 25.2 0.00 0.00 0.00 53 999.9
20260508002107 85 355 7.8 19.1 0.00 0.00 0.00 54 999.7
20260508001605 85 341 8.7 17.4 0.00 0.00 0.00 53 999.7
20260508001323 85 45 9.6 17.4 0.00 0.00 0.00 53 999.8
20260508000554 85 356 9.6 20.0 0.00 0.00 0.00 53 999.7
20260508000026 85 344 8.7 19.1 0.00 0.00 0.00 53 1000.0
20260507235523 85 12 9.6 20.0 0.00 0.00 0.00 52 999.9
20260507235013 85 326 10.4 20.0 0.00 0.00 0.00 52 999.9
20260507234716 85 339 7.8 19.1 0.00 0.00 0.00 53 999.6
20260507233944 85 16 6.1 13.9 0.00 0.00 0.00 53 999.7
20260507233425 85 19 6.1 13.0 0.00 0.00 0.00 53 999.7
20260507232923 85 333 6.1 13.0 0.00 0.00 0.00 54 999.8
20260507232430 85 0 7.0 18.2 0.00 0.00 0.00 54 999.7
20260507232423 85 30 6.1 13.0 0.00 0.00 0.00 54 999.8
20260507231426 84 308 6.1 18.2 0.00 0.00 0.00 54 999.7
20260507230906 84 334 4.3 12.2 0.00 0.00 0.00 56 999.9
20260507230405 83 318 2.6 12.2 0.00 0.00 0.00 56 999.8
20260507225907 83 336 2.6 10.4 0.00 0.00 0.00 56 999.8
20260507225342 83 328 3.5 10.4 0.00 0.00 0.00 56 999.8
20260507224837 83 308 1.7 7.8 0.00 0.00 0.00 57 999.9
20260507224537 83 2 1.7 6.1 0.00 0.00 0.00 56 999.9
20260507223801 84 55 3.5 10.4 0.00 0.00 0.00 56 1000.0
20260507223258 84 16 3.5 10.4 0.00 0.00 0.00 56 1000.0
20260507222751 83 0 2.6 13.0 0.00 0.00 0.00 56 1000.0
20260507222243 84 348 2.6 13.0 0.00 0.00 0.00 56 1000.2
20260507221715 84 116 3.5 8.7 0.00 0.00 0.00 57 1000.3
20260507221212 84 308 3.5 8.7 0.00 0.00 0.00 56 1000.2
20260507220645 84 332 3.5 8.7 0.00 0.00 0.00 56 1000.4
20260507220143 84 72 1.7 6.1 0.00 0.00 0.00 56 1000.4
20260507215914 84 1 1.7 7.0 0.00 0.00 0.00 56 1000.4
20260507215141 84 354 2.6 7.0 0.00 0.00 0.00 56 1000.5
20260507214641 84 14 2.6 8.7 0.00 0.00 0.00 56 1000.7
20260507214139 84 35 2.6 8.7 0.00 0.00 0.00 55 1000.5
20260507213611 85 355 3.5 8.7 0.00 0.00 0.00 55 1000.6